Regional Weather Roundup
Issued by NWS

Home | Current Version | Previous Version | Text Only | Print | Product List | Glossary Off
Versions: 1 2 3 4 5 6 7 8 9 10 11 12 13 14 15 16 17 18 19 20 21 22 23 24 25 26 27 28 29 30 31 32 33 34 35 36 37 38 39 40 41 42 43 44 45 46 47 48 49 50

000
ASUS43 KMPX 031601
RWRMN
WEATHER ROUNDUP FOR MINNESOTA
NATIONAL WEATHER SERVICE TWIN CITIES/CHANHASSEN MN
1100 AM CDT MON AUG 03 2015


NOTE: "FAIR" INDICATES FEW OR NO CLOUDS BELOW 12,000 FEET WITH NO
SIGNIFICANT WEATHER AND/OR OBSTRUCTIONS TO VISIBILITY. N/A MEANS
CURRENT SKY AND/OR WEATHER CONDITIONS ARE NOT AVAILABLE.

MNZ060>063-068>070-031700-
   Twin Cities Metro

CITY           SKY/WX    TMP DP  RH WIND       PRES   REMARKS
TWIN CITIES    SUNNY     74  47  38 NW14      29.91S
ST PAUL        SUNNY     74  47  38 N15G24    29.91S
CRYSTAL        SUNNY     75  49  39 NW14      29.91R
BLAINE         SUNNY     73  50  43 NW15G22   29.91R
LAKEVILLE      SUNNY     72  54  53 NW7       29.93R
EDEN PRAIRIE   SUNNY     75  51  43 N10       29.91S
SOUTH ST PAUL  SUNNY     74  44  34 NW12G21   29.91S
LAKE ELMO      FAIR      72  50  46 NW15G21   29.92S
$$
MNZ001>005-007-008-013>017-022>024-027-028-031700-
   Northwest Minnesota

CITY           SKY/WX    TMP DP  RH WIND       PRES   REMARKS
BEMIDJI        MOSUNNY   66  49  55 NW17      29.90S
HALLOCK        SUNNY     68  52  56 NW14G32   29.92S
ROSEAU         PTSUNNY   66  55  68 NW13      29.89R
WARROAD        CLOUDY    63  54  72 NW15G21   29.88S
THIEF RVR FALL SUNNY     66  52  59 NW16      29.93R
CROOKSTON      SUNNY     68  54  60 N12       29.94S
FOSSTON        SUNNY     70  48  46 NW14      29.93S
DETROIT LAKES  SUNNY     68  48  49 NW7       29.95S
MOORHEAD       SUNNY     68  55  64 NW3         N/A
PARK RAPIDS    SUNNY     70  47  43 N13       29.92S
MAHNOMEN       FAIR      67  51  57 NW9       29.94S
$$
MNZ006-009>011-018-025>026-031700-
   North Central Minnesota

CITY           SKY/WX    TMP DP  RH WIND       PRES   REMARKS
BAUDETTE       CLOUDY    63  52  67 NW13      29.86S
FLAG ISLAND    LGT RAIN  57  55  94 NW18G26   29.85S
INTL FALLS     CLOUDY    63  54  72 W14G21    29.83S
WASKISH        PTSUNNY   66  54  63 W14G20    29.87F
BIG FORK       MOSUNNY   64  52  63 NW6       29.87S
LONGVILLE      MOSUNNY   66  52  59 NW8G16    29.90S
GRAND RAPIDS   CLOUDY    64  48  55 NW16      29.88S
CRANE LAKE     CLOUDY    61  52  72 W6        29.83S
ORR            CLOUDY    61  50  67 NW12G17   29.82R
COOK           CLOUDY    63  54  72 W9        29.85R
WALKER         FAIR      66  51  57 NW14      29.91S
$$
MNZ012-019>021-037-031700-
   Northeast Minnesota

CITY           SKY/WX    TMP DP  RH WIND       PRES   REMARKS
DULUTH         PTSUNNY   67  51  56 NW17G28   29.84R
ELY            PTSUNNY   63  50  63 W13       29.81R
HIBBING        PTSUNNY   65  52  62 NW18G25   29.85S
EVELETH        PTSUNNY   63  50  63 NW16      29.85R
DULUTH HARBOR  PTSUNNY   70  54  56 W18       29.83R
TWO HARBORS    PTSUNNY   70  55  60 NW8       29.80R
SILVER BAY     PTSUNNY   70  52  52 W8        29.78R
GRAND MARAIS     N/A     66  51  58 NW12G24   29.72S
G MARAIS ARPRT SUNNY     61  48  63 W9        29.78R
$$
MNZ029>031-032-039>041-046>048-054>057-064-031700-
   West Central Minnesota

CITY           SKY/WX    TMP DP  RH WIND       PRES   REMARKS
FERGUS FALLS   SUNNY     70  54  56 NW8       29.95R
WHEATON        SUNNY     70  54  56 W8        29.98S
MORRIS         SUNNY     72  55  56 NW10      29.96S
ALEXANDRIA     SUNNY     71  48  43 NW9       29.97R
ELBOW LAKE     FAIR      68  55  61 NW6       29.96S
WADENA         SUNNY     70  48  46 NW12      29.94R
GLENWOOD       SUNNY     72  52  49 NW7       29.96S
APPLETON       SUNNY     73  52  46 NW8       29.96S
BENSON         SUNNY     73  54  49 N8        29.96S
ORTONVILLE     SUNNY     72  52  49 NW9       29.97S
MADISON        SUNNY     73  52  46 NW10      29.97S
WILLMAR        FAIR      72  55  56 W9        29.97S
$$
MNZ033>034-036-042>043-049>051-058-059-031700-
   Central Minnesota

CITY           SKY/WX    TMP DP  RH WIND       PRES   REMARKS
ST CLOUD       SUNNY     72  48  42 NW14      29.92S
SAUK CENTRE    FAIR      70  48  45 NW10      29.95S
PAYNESVILLE    SUNNY     69  47  46 W6        29.95S
AITKIN         MOSUNNY   70  52  52 W10G21    29.88S
PINE RIVER     SUNNY     70  52  52 NW10G21   29.94S
BRAINERD       SUNNY     70  48  45 NW15      29.92R
STAPLES        SUNNY     70  46  43 NW12G18   29.93S
LONG PRAIRIE   FAIR      68  48  49 NW6       29.95S
LITCHFIELD     SUNNY     72  52  49 N9        29.95R
BUFFALO        SUNNY     72  48  42 NW8       29.94S
$$
MNZ037-044-045-052-053-031700-
   East Central Minnesota

CITY           SKY/WX    TMP DP  RH WIND       PRES   REMARKS
PRINCETON      SUNNY     73  50  43 NW13G18   29.92R
MORA           SUNNY     70  52  52 NW17G29   29.92R
CAMBRIDGE      SUNNY     73  54  49 NW14G22   29.89R
RUSH CITY      SUNNY     71  52  50 NW12G18   29.90R
MOOSE LAKE     MOSUNNY   66  52  59 NW10      29.86S
HINCKLEY       FAIR      68  54  60 NW13G21   29.89R
CLOQUET        PTSUNNY   66  48  52 W16G22    29.86R
MCGREGOR       MOSUNNY   68  50  52 NW13G21   29.89S
$$
MNZ071>073-080-081-089-090-097-098-031700-
   Southwest Minnesota

CITY           SKY/WX    TMP DP  RH WIND       PRES   REMARKS
MONTEVIDEO     SUNNY     75  61  60 N6        29.98S
GRANITE FALLS  SUNNY     72  55  54 W9        29.98S
CANBY          SUNNY     73  51  45 NW6       29.99S
MARSHALL       SUNNY     73  52  46 W8        30.00S
REDWOOD FALLS  SUNNY     75  53  46 NW8       29.96R
OLIVIA         SUNNY     70  54  56 NW10      29.96R
PIPESTONE      SUNNY     72  55  56 NW6       30.01S
WINDOM         SUNNY     73  55  53 W7        29.99R
WORTHINGTON    SUNNY     72  54  53 W8        30.01S
JACKSON        SUNNY     73  54  49 W9        30.00S
SLAYTON        SUNNY     73  54  52 CALM      30.01S
$$
MNZ065>067-074>077-082>085-091>093-031700-
   South Central Minnesota

CITY           SKY/WX    TMP DP  RH WIND       PRES   REMARKS
MANKATO        SUNNY     72  52  49 NW10      29.95R
NEW ULM        SUNNY     73  54  49 W9        29.95S
FAIRMONT       SUNNY     73  52  46 NW10      29.97S
GLENCOE        SUNNY     73  58  61 NW10      29.94R
FARIBAULT      SUNNY     72  55  56 NW7       29.94S
OWATONNA       SUNNY     72  54  53 W9        29.94S
WASECA         SUNNY     72  57  60 W8        29.97R
ALBERT LEA     SUNNY     72  55  56 W7        29.96R
$$
MNZ078>079-086>088-094>096-031700-
   Southeast Minnesota

CITY           SKY/WX    TMP DP  RH WIND       PRES   REMARKS
ROCHESTER      SUNNY     71  56  58 NW12      29.94S
RED WING       SUNNY     75  52  43 NW7       29.90R
STANTON        SUNNY     73  55  51 NW9       29.91S
DODGE CENTER   SUNNY     70  54  56 NW10      29.94S
WINONA         SUNNY     73  54  49 NW8       29.90R
AUSTIN         SUNNY     73  54  49 W12       29.95R
PRESTON        SUNNY     70  54  56 NW13      29.94R
$$
ABBREVIATIONS USED IN REMARKS
   TC - TEMPERATURES IN CELSIUS
  WCI - WIND CHILL INDEX
   HX - HEAT INDEX
  VSB - VISIBILITY
$$


USA.gov is the U.S. government's official web portal to all federal, state and local government web resources and services.